[[{"header":{"parameterUnit":"m.s-1","parameterCategory":1,"la1":30.2991,"la2":30.254,"lo1":-89.0895,"lo2":-89.0444,"dy":0.0017,"dx":0.0017,"nx":28,"ny":28,"refTime":"2023-10-07T21:00:00:Z","depth":0,"parameterNumber":2,"parameterNumberName":"U-component_of_WINDS"},"data":[0,0,0,0,0,0,0,0,0,0,0,0,0,0,0,0,0,0,0,0,0,0,0,0,0,0,0,0,0,0,0,0,0,0,0,0,0,0,0,0,0,0,0,0,0,0,0,0,0,0,0,0,0,0,0,0,0,0,0.817,0.8169,0,0.8097,0.8096,0.8096,0.8032,0.8032,0.8031,0.803,0.7957,0.7956,0.7954,0,0,0,0,0,0,0,0,0,0,0,0,0,0.8257,0.8256,0.817,0.8169,0.8168,0.8097,0.8096,0.8095,0.8033,0.8032,0.8031,0.803,0.7957,0.7956,0.7954,0,0,0,0,0,0,0,0,0,0,0,0,0,0.8206,0.8256,0.817,0.8128,0.8124,0.8098,0.8096,0.8095,0.8033,0.8032,0.8031,0.803,0.7958,0.7956,0.7954,0.7964,0,0,0.7948,0.7947,0,0,0,0,0,0,0,0,0.8209,0.8202,0.8136,0.8131,0.8126,0.8073,0.81,0.8051,0.8033,0.8067,0.803,0.8029,0.7996,0.7991,0.798,0.796,0.7957,0.7948,0.7947,0.7946,0.7945,0,0,0,0,0,0,0,0.8212,0.8205,0.8141,0.8135,0.8129,0.8114,0.8105,0.809,0.8039,0.8064,0.806,0.8052,0.7994,0.7982,0.7978,0.7956,0.7948,0.7946,0.7945,0.7944,0.7942,0.7943,0,0,0,0,0,0,0.8222,0.8209,0.8144,0.8139,0.8166,0.8113,0.8104,0.8091,0.8039,0.803,0.8053,0.8049,0.7986,0.798,0.7975,0.7983,0.7946,0.7944,0.7943,0.7941,0.7942,0.7943,0,0,0,0,0,0,0.8224,0.8217,0.8147,0.8173,0.8162,0.8113,0.8099,0.809,0.8078,0.803,0.8021,0.805,0.7985,0.7978,0.7967,0.798,0.7943,0.7942,0.7939,0.7941,0.7942,0.7999,0,0,0,0,0,0,0.8227,0.8218,0.822,0.8173,0.8161,0.8139,0.81,0.809,0.8075,0.807,0.8025,0.8017,0.7983,0.797,0.7965,0.7976,0.794,0.7938,0.794,0.7942,0.7996,0.8003,0.8008,0,0,0,0,0,0.823,0.8239,0.8221,0.8213,0.8163,0.814,0.8133,0.8094,0.8076,0.8079,0.8048,0.8018,0.7979,0.797,0.7963,0.7974,0.7937,0.7939,0.7942,0.7993,0.8001,0.8008,0,0,0,0,0,0,0.829,0.8232,0.8211,0.8205,0.8178,0.813,0.8131,0.8104,0.8082,0.8078,0.8031,0.8021,0.8016,0.7994,0.7984,0.7981,0.7954,0.7956,0.7996,0.8003,0.8009,0.8014,0.7939,0,0,0,0,0,0.8302,0.8287,0.8238,0.8238,0.8225,0.8181,0.817,0.8142,0.8112,0.81,0.8069,0.8041,0.8023,0.8012,0.7992,0.7993,0.7983,0.7997,0.8004,0.8009,0.801,0.801,0.8016,0.7951,0.7951,0.7951,0,0,0.8327,0.8294,0.8288,0.8249,0.8225,0.8211,0.8172,0.8159,0.8149,0.8098,0.8086,0.8063,0.8029,0.8024,0.8021,0.8006,0.8026,0.8012,0.8017,0.8015,0.8013,0.8019,0.8025,0.7953,0.7952,0.7952,0,0,0.8367,0.834,0.8337,0.8314,0.8278,0.8248,0.8248,0.8204,0.8186,0.8173,0.8135,0.8123,0.8092,0.807,0.8055,0.8088,0.806,0.8083,0.8114,0.8115,0.812,0.8124,0.8136,0.8141,0.8085,0.8085,0.8085,0,0.8403,0.838,0.8339,0.8329,0.8313,0.8267,0.8264,0.8244,0.8203,0.8194,0.8178,0.8139,0.8113,0.8103,0.8111,0.8101,0.8099,0.8087,0.8122,0.8126,0.813,0.814,0.8145,0.8088,0.8087,0.8087,0.8087,0,0.8427,0.8412,0.8414,0.8376,0.8361,0.8355,0.8313,0.8303,0.8277,0.825,0.8238,0.8206,0.8179,0.8175,0.815,0.8162,0.8154,0.8131,0.8102,0.8139,0.8149,0.8153,0.8092,0.8091,0.809,0.8089,0,0,0.85,0.844,0.8442,0.8424,0.8382,0.837,0.8362,0.8336,0.8328,0.8303,0.8295,0.8271,0.825,0.8233,0.8205,0.8205,0.8234,0.8182,0.818,0.8193,0.8246,0.8263,0.8268,0.8215,0.8216,0.8217,0.8248,0,0.8532,0.8514,0.8478,0.8472,0.8458,0.8416,0.8409,0.8383,0.8358,0.8343,0.8315,0.8299,0.8272,0.8262,0.826,0.8231,0.8244,0.8228,0.8208,0.8208,0.8218,0.8273,0.8291,0.8322,0.8252,0.8252,0.8253,0,0.8567,0.8544,0.8537,0.8496,0.8489,0.8483,0.8457,0.8443,0.8413,0.8395,0.8377,0.8347,0.8337,0.8312,0.8298,0.8289,0.8279,0.8263,0.8264,0.826,0.8232,0.8271,0.8331,0.8336,0.8258,0.8258,0.8257,0,0.8621,0.8588,0.858,0.8566,0.8519,0.8516,0.8496,0.8465,0.8452,0.8429,0.8421,0.8398,0.8385,0.8368,0.8333,0.8318,0.8324,0.8295,0.8309,0.831,0.8311,0.8311,0.8371,0.8306,0.8306,0.8306,0.8306,0,0.866,0.8658,0.8604,0.8598,0.8595,0.8553,0.8551,0.8527,0.85,0.849,0.8452,0.8444,0.8398,0.8385,0.8357,0.8351,0.8346,0.8331,0.8324,0.8334,0.8336,0.8326,0.8323,0.8307,0.8307,0.8306,0.8306,0,0.872,0.8683,0.8671,0.8628,0.8617,0.8616,0.8579,0.8573,0.8546,0.8534,0.8529,0.8487,0.8469,0.8433,0.8405,0.8387,0.8387,0.8374,0.8397,0.8392,0.8408,0.8407,0.8463,0.8469,0.8401,0.8401,0.8402,0,0.8747,0.8744,0.87,0.8691,0.8672,0.8657,0.8644,0.8604,0.8592,0.8558,0.8557,0.8536,0.8517,0.8492,0.846,0.8439,0.8425,0.8446,0.8421,0.8432,0.8425,0.8426,0.8425,0.8451,0.8452,0.8453,0.8454,0,0.8799,0.8782,0.8764,0.874,0.8725,0.8704,0.8682,0.8677,0.8631,0.862,0.8601,0.8587,0.856,0.854,0.8515,0.8495,0.8467,0.8462,0.8464,0.8474,0.8488,0.8481,0.8412,0.8461,0.846,0.8459,0.8459,0.8459,0.8843,0.8839,0.8807,0.8789,0.8768,0.8748,0.874,0.8713,0.8697,0.8671,0.8648,0.8632,0.8604,0.8567,0.8549,0.8537,0.8523,0.8526,0.8526,0.8528,0.8532,0.849,0.8532,0.8532,0.8531,0.8531,0.8531,0,0.8893,0.8872,0.8855,0.8825,0.8811,0.8786,0.876,0.875,0.8736,0.8712,0.8694,0.8674,0.8655,0.8622,0.8601,0.8597,0.8584,0.8593,0.8593,0.8589,0.8546,0.8546,0.8604,0.8604,0.8604,0.8604,0.8604,0.8604,0.8918,0.8909,0.8889,0.887,0.8848,0.8831,0.8819,0.8801,0.8781,0.876,0.8744,0.8722,0.8695,0.8671,0.8654,0.8644,0.8638,0.8651,0.8638,0.8599,0.8592,0.8585,0.8585,0.865,0.8651,0.8682,0.8682,0.8683]},{"header":{"parameterUnit":"m.s-1","parameterCategory":1,"la1":30.2991,"la2":30.254,"lo1":-89.0895,"lo2":-89.0444,"dy":0.0017,"dx":0.0017,"nx":28,"ny":28,"refTime":"2023-10-07T21:00:00:Z","depth":0,"parameterNumber":3,"parameterNumberName":"V-component_of_WINDS"},"data":[0,0,0,0,0,0,0,0,0,0,0,0,0,0,0,0,0,0,0,0,0,0,0,0,0,0,0,0,0,0,0,0,0,0,0,0,0,0,0,0,0,0,0,0,0,0,0,0,0,0,0,0,0,0,0,0,0,0,-3.25,-3.2501,0,-3.265,-3.2651,-3.2653,-3.2654,-3.2652,-3.265,-3.2649,-3.2798,-3.2804,-3.2809,0,0,0,0,0,0,0,0,0,0,0,0,0,-3.2211,-3.2216,-3.25,-3.2502,-3.2503,-3.2649,-3.2651,-3.2653,-3.2655,-3.2652,-3.265,-3.2648,-3.2796,-3.2803,-3.281,0,0,0,0,0,0,0,0,0,0,0,0,0,-3.2346,-3.2218,-3.2499,-3.2522,-3.2525,-3.2649,-3.2651,-3.2654,-3.2655,-3.2652,-3.2649,-3.2647,-3.2794,-3.2802,-3.2811,-3.2921,0,0,-3.2837,-3.2841,0,0,0,0,0,0,0,0,-3.2338,-3.2356,-3.2517,-3.252,-3.2525,-3.263,-3.2604,-3.2743,-3.2656,-3.2606,-3.2649,-3.2645,-3.2744,-3.2757,-3.2791,-3.2928,-3.2934,-3.2838,-3.2843,-3.2847,-3.2849,0,0,0,0,0,0,0,-3.2329,-3.235,-3.2559,-3.2519,-3.2524,-3.2523,-3.2539,-3.2631,-3.2689,-3.261,-3.261,-3.2628,-3.2746,-3.2783,-3.2795,-3.2937,-3.2838,-3.2845,-3.2851,-3.2854,-3.317,-3.3174,0,0,0,0,0,0,-3.2315,-3.2342,-3.2554,-3.2563,-3.2423,-3.253,-3.2548,-3.2599,-3.2688,-3.2699,-3.263,-3.2628,-3.2769,-3.2785,-3.28,-3.2934,-3.2847,-3.2855,-3.286,-3.3167,-3.3171,-3.3175,0,0,0,0,0,0,-3.2309,-3.2334,-3.2548,-3.2453,-3.248,-3.2539,-3.2596,-3.2604,-3.2641,-3.2704,-3.2714,-3.2658,-3.2768,-3.2788,-3.2891,-3.2939,-3.2859,-3.2867,-3.3163,-3.3168,-3.3173,-3.3203,0,0,0,0,0,0,-3.2301,-3.2332,-3.2375,-3.2454,-3.2485,-3.2638,-3.2599,-3.2609,-3.2656,-3.2654,-3.2732,-3.2742,-3.2767,-3.2878,-3.29,-3.295,-3.2873,-3.3159,-3.3166,-3.3171,-3.3198,-3.3209,-3.3217,0,0,0,0,0,-3.2291,-3.2377,-3.2378,-3.2403,-3.2541,-3.2641,-3.2658,-3.2687,-3.266,-3.2703,-3.2744,-3.274,-3.2931,-3.2889,-3.2913,-3.2966,-3.3156,-3.3164,-3.3171,-3.3194,-3.3207,-3.3217,0,0,0,0,0,0,-3.2302,-3.2388,-3.2389,-3.2505,-3.2566,-3.2641,-3.2696,-3.2699,-3.2768,-3.2763,-3.2794,-3.2811,-3.2914,-3.2951,-3.2902,-3.3077,-3.304,-3.3053,-3.3049,-3.3062,-3.3071,-3.306,-3.2881,0,0,0,0,0,-3.2318,-3.2393,-3.2464,-3.2559,-3.2589,-3.2638,-3.2682,-3.2699,-3.2763,-3.2788,-3.2836,-3.2897,-3.2971,-3.3018,-3.309,-3.3204,-3.322,-3.3252,-3.3262,-3.327,-3.3279,-3.3341,-3.3356,-3.3199,-3.3198,-3.3198,0,0,-3.2351,-3.2408,-3.2453,-3.2562,-3.2611,-3.2687,-3.2659,-3.2741,-3.2797,-3.28,-3.29,-3.2938,-3.3008,-3.3117,-3.3167,-3.315,-3.3327,-3.3279,-3.3284,-3.329,-3.335,-3.3365,-3.3378,-3.3203,-3.3203,-3.3202,0,0,-3.2451,-3.2502,-3.2586,-3.2636,-3.2711,-3.2743,-3.2763,-3.2838,-3.2864,-3.2965,-3.2969,-3.3036,-3.3162,-3.3212,-3.3254,-3.3372,-3.337,-3.3394,-3.3444,-3.3504,-3.3516,-3.3528,-3.3569,-3.3583,-3.3404,-3.3404,-3.3404,0,-3.2482,-3.2598,-3.2628,-3.271,-3.2757,-3.2765,-3.285,-3.2896,-3.2991,-3.3022,-3.3003,-3.3162,-3.3209,-3.3329,-3.3358,-3.3392,-3.3415,-3.3385,-3.3513,-3.3524,-3.3535,-3.3574,-3.359,-3.3407,-3.3407,-3.3406,-3.3406,0,-3.2633,-3.2713,-3.2771,-3.2863,-3.2917,-3.3,-3.3041,-3.3092,-3.3104,-3.3137,-3.324,-3.3298,-3.3381,-3.3411,-3.3423,-3.3533,-3.352,-3.3506,-3.3469,-3.3552,-3.3589,-3.3605,-3.341,-3.3409,-3.3409,-3.3408,0,0,-3.2743,-3.2851,-3.2872,-3.2913,-3.2997,-3.3058,-3.3141,-3.3223,-3.3266,-3.333,-3.3399,-3.3507,-3.3494,-3.3542,-3.3559,-3.3612,-3.3701,-3.3592,-3.3594,-3.3609,-3.3824,-3.3833,-3.385,-3.3701,-3.3704,-3.3707,-3.3818,0,-3.285,-3.2999,-3.3028,-3.3156,-3.3229,-3.3238,-3.331,-3.3368,-3.3401,-3.3467,-3.3504,-3.3579,-3.3558,-3.3586,-3.3639,-3.3679,-3.3744,-3.3672,-3.3764,-3.3767,-3.3745,-3.387,-3.388,-3.3982,-3.3833,-3.3835,-3.3837,0,-3.2996,-3.3065,-3.32,-3.3274,-3.3306,-3.337,-3.3447,-3.3511,-3.3577,-3.3597,-3.365,-3.3662,-3.3747,-3.3707,-3.3824,-3.3774,-3.3813,-3.3838,-3.3843,-3.3852,-3.3806,-3.3881,-3.4016,-3.403,-3.3861,-3.3859,-3.3857,0,-3.3061,-3.3188,-3.3285,-3.332,-3.3409,-3.3453,-3.3492,-3.3555,-3.3603,-3.367,-3.3701,-3.3777,-3.3818,-3.3876,-3.3908,-3.3876,-3.4022,-3.3985,-3.404,-3.4039,-3.4069,-3.4066,-3.421,-3.4096,-3.4096,-3.4096,-3.4095,0,-3.3177,-3.3259,-3.3315,-3.3375,-3.3467,-3.35,-3.3589,-3.3627,-3.3684,-3.375,-3.3762,-3.3823,-3.3862,-3.3929,-3.3954,-3.4046,-3.4065,-3.4083,-3.4088,-3.4081,-3.4079,-3.4106,-3.41,-3.41,-3.4099,-3.4098,-3.4098,0,-3.3265,-3.3306,-3.3412,-3.3488,-3.3508,-3.3573,-3.3636,-3.3694,-3.3728,-3.3811,-3.3833,-3.3885,-3.3964,-3.4002,-3.41,-3.4117,-3.4221,-3.4222,-3.4199,-3.4201,-3.4253,-3.4247,-3.4419,-3.4443,-3.4314,-3.4315,-3.4316,0,-3.3336,-3.3399,-3.3481,-3.3527,-3.3567,-3.3641,-3.3689,-3.3724,-3.3774,-3.3854,-3.3901,-3.3981,-3.4047,-3.4173,-3.4219,-3.4294,-3.4297,-3.4352,-3.4308,-3.4298,-3.4296,-3.4291,-3.4297,-3.4359,-3.436,-3.4361,-3.4362,0,-3.3457,-3.3474,-3.3544,-3.3622,-3.368,-3.3742,-3.3804,-3.384,-3.3884,-3.3939,-3.4021,-3.4072,-3.4173,-3.4252,-3.433,-3.4368,-3.4372,-3.4376,-3.4393,-3.4385,-3.4369,-3.4377,-3.4219,-3.4372,-3.4371,-3.437,-3.4369,-3.4369,-3.3538,-3.3594,-3.3661,-3.3738,-3.3788,-3.3845,-3.3903,-3.3944,-3.4014,-3.4099,-3.4115,-3.4201,-3.4265,-3.437,-3.4411,-3.4479,-3.4466,-3.449,-3.4496,-3.4501,-3.4503,-3.4359,-3.4493,-3.4493,-3.4493,-3.4493,-3.4493,0,-3.3658,-3.3702,-3.3773,-3.3859,-3.3919,-3.392,-3.3987,-3.4038,-3.4114,-3.4174,-3.4239,-3.4332,-3.4409,-3.4461,-3.4538,-3.4582,-3.4586,-3.4601,-3.4598,-3.4606,-3.4511,-3.4488,-3.4597,-3.4597,-3.4597,-3.4597,-3.4597,-3.4597,-3.3728,-3.3823,-3.3849,-3.3968,-3.4011,-3.4097,-3.4135,-3.4187,-3.4235,-3.4339,-3.4403,-3.4438,-3.4494,-3.4576,-3.4645,-3.4659,-3.4686,-3.4702,-3.4714,-3.4624,-3.4613,-3.4602,-3.4581,-3.4708,-3.4708,-3.4804,-3.4805,-3.4805]}]]